This is the latest recevied weather packets stored in our database for station/object JA3QOS-13. If no packets are shown the sender has not sent any weather packets the latest 10 day(s).
| Time | Temp. | Humidity | Pressure | Rain* | Wind** | Luminosity | Snow |
|---|---|---|---|---|---|---|---|
| 1787443208 | 26.11° C | 91% | 1017.1 hPa | 0 mm | - | - | - |
| 1787441403 | 25° C | 96% | 1016.8 hPa | 0 mm | - | - | - |
| 1787439604 | 23.89° C | 99% | 1016.9 hPa | 0 mm | - | - | - |
| 1787437803 | 23.33° C | 99% | 1017.2 hPa | 0 mm | - | - | - |
| 1787436004 | 23.33° C | 94% | 1017 hPa | 0 mm | - | - | - |
| 1787434203 | 22.78° C | 94% | 1016.7 hPa | 0 mm | - | - | - |
| 1787432404 | 22.22° C | 95% | 1016.4 hPa | 0 mm | - | - | - |
| 1787430604 | 21.67° C | 99% | 1016.4 hPa | 0 mm | - | - | - |
| 1787428804 | 22.22° C | 99% | 1016.4 hPa | 0 mm | - | - | - |
| 1787427004 | 22.22° C | 99% | 1016.2 hPa | 0 mm | - | - | - |
| 1787425203 | 22.22° C | 99% | 1016.1 hPa | 0 mm | - | - | - |
| 1787423404 | 22.22° C | 99% | 1016 hPa | 0 mm | - | - | - |
| 1787421604 | 22.78° C | 99% | 1016 hPa | 0 mm | - | - | - |
| 1787419804 | 22.78° C | 97% | 1015.9 hPa | 0 mm | - | - | - |
| 1787418004 | 22.78° C | 96% | 1016 hPa | 0 mm | - | - | - |
| 1787416203 | 22.78° C | 93% | 1016.1 hPa | 0 mm | - | - | - |
| 1787414403 | 22.78° C | 95% | 1016.2 hPa | 0 mm | - | - | - |
| 1787412604 | 23.33° C | 88% | 1016.3 hPa | 0 mm | - | - | - |
| 1787410804 | 23.33° C | 99% | 1016.4 hPa | 0 mm | - | - | - |
| 1787409004 | 23.89° C | 99% | 1016.7 hPa | 0 mm | - | - | - |
| 1787407204 | 23.89° C | 99% | 1016.5 hPa | 0 mm | - | - | - |
| 1787405403 | 24.44° C | 97% | 1016.5 hPa | 0 mm | - | - | - |
| 1787403604 | 23.89° C | 99% | 1016.2 hPa | 0 mm | - | - | - |
| 1787401804 | 24.44° C | 98% | 1016.4 hPa | 0 mm | - | - | - |
| 1787400004 | 25° C | 97% | 1016.3 hPa | 0 mm | - | - | - |
* Rain latest hour (hover to see other rain measurements)
** Current wind speed in m/s (hover to see current wind gust speed)